UNISAT 2

Satellite information

Favourite Embed

Satellite Type and Status

PAYLOADIN ORBIT

Key statistics

Satellite UNISAT 2 at a glance.

Uptime

8234

Days in orbit

Revolutions

≈ 14.8

Per day

Orbit

LEO

Low Earth Orbit

Inclination

64.6

Latest

Satellite identification and parameters

Extended collection of information and parameters for UNISAT 2.

Object identification

Identified? True

Debris? False

Object name: UNISAT 2

International designator: 2002-058D

Object number (NORAD): 27608

Object ID (CCSDS): 27608

Country: ITALY (IT)

Current information (Y/N): Y

RCS size: MEDIUM

Orbital parameters

Period: 97.088 minutes

Inclination: 64.5542 deg

SMA: 6997.4 km

Apoapsis: 656.883 km

Periapsis: 581.647 km

RAAN: 15.0354 deg

Eccentricy: 0.005376

Argument of periapsis: 310.4222 deg

Mean anomaly: 49.22 deg

Mean motion: 14.83193042 rev/day

Mean motion (dot): 0.00000614 rev/day2

B* drag term: 0.00009153 1/REarth

Two-line elements (TLE)

Creation date: July 5, 2025, 5:45 p.m.

Reference frame: TEME

Reference center: EARTH

Epoch: July 5, 2025, 1:52 p.m. UTC

TLE line 0: 0 UNISAT 2

TLE line 1: 1 27608U 02058D 25186.57825664 .00000614 00000-0 91530-4 0 9996

TLE line 2: 2 27608 64.5542 15.0354 0053760 310.4222 49.2200 14.83193042215363

Live tracking on map

Real-time ground track for satellite UNISAT 2.

In-orbit conjunctions

There are no conjunctions computed for UNISAT 2, at the moment. Check back to stay up to date, as we update our databases every day.

Go to all conjunctions

Associated space launch

Technology satellite for OHB-System, Germany.

UNISAT 2 was lifted into orbit during the mission ‘Dnepr | AATiS-OSCAR-49’, on board a Dnepr space rocket.

The launch took place on Dec. 20, 2002, 5 p.m. from 109/95.

For more information about the launch, click the button.

Launch to space Dnepr | AATiS-OSCAR-49
Dnepr | AATiS-OSCAR-49

Agency: N/A

Status: Launch Successful

Launch date: Dec. 20, 2002, 5 p.m. UTC

Rocket: Dnepr

Launch pad: 109/95

Location: Baikonur Cosmodrome, Republic of Kazakhstan

...

Latest news about this satellite

There are no fresh news available about this satellite. Check back as we update our databases every day.


Newsletter sign-up

Weekly statistics, charts and insights to help you stay on top of the space industry.